Location: Mahannah Oil Field
(37.4664°N, 96.6003°W)
Time: 09:45:14
(UTC+00:00)

Vanguard 2 - Pass Details

Date: 01 February 2021
Orbit: 552 x 2938 km, 32.9° (Epoch: 25 February)

Event Time Altitude Azimuth Distance (km) Brightness Sun altitude
Rises 00:46:52 0° 266° (W) 2,713 12.4 -11.6°
Reaches altitude 10° 00:49:23 10° 249° (WSW) 1,838 11.0 -12.1°
Maximum altitude 00:52:28 21° 198° (SSW) 1,366 9.2 -12.7°
Drops below altitude 10° 00:56:04 10° 148° (SSE) 2,173 9.7 -13.4°
Enters shadow 00:59:05 - 134° (SE) 3,276 10.4 -14.0°
